Date,Location,Precipitation,Radiation,tmax,tmin,RH,Wind run,PAW,SoilWaterDeficit
01/01/2018,CHV,0.5,1.82,13.9,10.2,83,817.2,67,-0.84
02/01/2018,CHV,12,1.53,9.3,6.2,88,756,67,0
03/01/2018,CHV,2.5,1.73,13.9,5.2,93,522,67,0
04/01/2018,CHV,11,3.44,12.3,5,85,777.6,67,0
05/01/2018,CHV,8,1.56,14,7.5,93,612,67,0
06/01/2018,CHV,0.5,2.31,10.6,7.1,93,428.4,67,0
07/01/2018,CHV,2,2.01,7.7,5.8,98,208.8,67,0
08/01/2018,CHV,0.5,1.6,5.7,5.3,96,522,67,0
09/01/2018,CHV,0,3.07,7.9,4.2,94,352.8,67,-0.19
10/01/2018,CHV,2,1.66,8.2,2.3,99,277.2,67,0
11/01/2018,CHV,0.5,2.99,9.4,6.3,96,295.2,67,0
12/01/2018,CHV,0.5,1.67,7.4,4,100,212.4,67,0
13/01/2018,CHV,0.5,1.68,5.6,4.1,99,199.0956522,67,0
14/01/2018,CHV,0,2.69,5,0.9,96,316.8,67,-0.15
15/01/2018,CHV,0,4.95,7.1,-0.6,97,133.2,67,-0.02
16/01/2018,CHV,7.5,1.75,10.1,2.6,96,619.2,67,0
17/01/2018,CHV,4,3.45,9.8,5.3,90,626.4,67,0
18/01/2018,CHV,2.5,5.19,9.1,2.1,83,612,67,0
19/01/2018,CHV,4,2.06,10.7,5,92,669.6,67,0
20/01/2018,CHV,3.5,3.65,7.2,3.4,91,403.2,67,0
21/01/2018,CHV,6,1.87,11.1,3,96,540,67,0
22/01/2018,CHV,10.5,1.89,11.9,5,98,345.6,67,0
23/01/2018,CHV,6.5,3.34,13.8,8.4,93,529.2,67,0
24/01/2018,CHV,0,1.98,11.8,6.3,94,432,67,-0.44
25/01/2018,CHV,4,3.18,12.5,11,92,720,67,0
26/01/2018,CHV,1,2.01,8.6,7.5,97,392.4,67,0
27/01/2018,CHV,0.5,6.01,9.8,4,94,216,67,0
28/01/2018,CHV,0,2.97,6.5,2.7,98,266.4,67,-0.18
29/01/2018,CHV,0,2.26,10.8,4.5,99,388.8,67,-0.38
30/01/2018,CHV,0,2.14,10.3,8.8,93,363.6,67,-0.88
31/01/2018,CHV,0.5,2.74,10.7,8,99,288,67,-0.59
01/02/2018,CHV,10.5,2.21,8.7,7.2,95,626.4,67,0
02/02/2018,CHV,1,5.16,7.4,1.9,90,388.8,67,0
03/02/2018,CHV,0.5,4.34,6.4,0.9,94,374.4,67,0
04/02/2018,CHV,4,2.39,5.2,0.8,98,223.2,67,0
05/02/2018,CHV,0,3.78,3,0.3,90,421.2,67,-0.43
06/02/2018,CHV,0,2.39,0.3,-2.2,95,374.4,67,-0.7
07/02/2018,CHV,0,2.43,-0.7,-1.7,100,363.6,67,-0.83
08/02/2018,CHV,0,4.95,-0.1,-2.6,90,378,67,-1.17
09/02/2018,CHV,2,10.24,4.8,-9.3,92,122.4,67,0
10/02/2018,CHV,0.5,4.68,2.7,-4.5,92,320.4,67,0
11/02/2018,CHV,4.5,10.53,5.4,-4.1,89,370.8,67,0
12/02/2018,CHV,1,5.81,7.7,2.3,93,493.2,67,0
13/02/2018,CHV,1.5,10.49,6.5,-1.8,87,302.4,67,0
14/02/2018,CHV,0.5,3.44,2.9,-0.3,89,417.6,67,-0.01
15/02/2018,CHV,6,4.07,8.1,-1.3,98,367.2,67,0
16/02/2018,CHV,2,2.93,11.1,3.6,98,331.2,67,0
17/02/2018,CHV,0,8.18,9,0.5,88,151.2,67,-0.5
18/02/2018,CHV,0,6.69,8.8,2.6,88,205.2,67,-1.07
19/02/2018,CHV,0.5,11.07,8.2,-1.5,92,133.2,67,-0.98
20/02/2018,CHV,5.5,3,6.2,0.6,99,172.8,67,0
21/02/2018,CHV,2.5,3.05,5.3,3.2,99,201.6,67,0
22/02/2018,CHV,0,9.26,3.9,-0.6,89,381.6,67,-0.56
23/02/2018,CHV,0,11.09,3.9,-2.1,81,421.2,67,-1.34
24/02/2018,CHV,0,12.32,3.4,-3.8,74,424.8,67,-2.27
25/02/2018,CHV,0,11.98,4.9,-2.8,63,442.8,67,-3.58
26/02/2018,CHV,0,13.23,3,-2.8,56,482.4,67,-4.99
27/02/2018,CHV,0,12.62,0,-5.5,59,558,67,-6.12
28/02/2018,CHV,0,8.48,-1.8,-7.2,71,352.8,67,-6.76
01/03/2018,CHV,0,12.6,-1.4,-9.7,59,482.4,67,-7.65
02/03/2018,CHV,0,5.62,1.9,-4.6,79,554.4,67,-8.3
03/03/2018,CHV,2,5.19,9.6,0.3,81,406.8,67,-7.07
04/03/2018,CHV,0,8.3,11.2,-0.1,84,288,67,-7.81
05/03/2018,CHV,10,3.65,8.4,2.4,96,288,67,0
06/03/2018,CHV,0,8.73,11.7,4,83,252,67,-1.08
07/03/2018,CHV,3.5,8.94,11.3,4.7,89,306,67,0
08/03/2018,CHV,3,7.72,9.8,3,91,381.6,67,0
09/03/2018,CHV,5.5,3.86,9.3,4,94,475.2,67,0
10/03/2018,CHV,2,5.01,13.4,5.1,88,234,67,0
11/03/2018,CHV,19,7.29,16.9,10.3,89,356.4,67,0
12/03/2018,CHV,0,12.6,16.9,9.6,79,399.6,67,-1.93
13/03/2018,CHV,1.5,6.31,11.7,8.5,82,644.4,67,-1.83
14/03/2018,CHV,0,6.82,11.9,7.2,87,414,67,-2.87
15/03/2018,CHV,7.5,14.96,13.8,1.9,73,381.6,67,0
16/03/2018,CHV,0.5,8.47,13.4,7.8,87,367.2,67,-0.72
17/03/2018,CHV,0,11.95,13.3,5.9,84,295.2,67,-2.1
18/03/2018,CHV,0,4.34,5.9,0.6,98,248.4,67,-2.52
19/03/2018,CHV,0,4.39,1,-1,92,309.6,67,-3
20/03/2018,CHV,0.5,4.45,0.6,-2.7,94,273.6,67,-2.9
21/03/2018,CHV,0.5,10.06,7.4,-2.4,73,482.4,67,-3.72
22/03/2018,CHV,0,14.03,7.4,-0.2,81,334.8,67,-4.84
23/03/2018,CHV,0,5.28,7.8,-1.2,84,342,67,-5.62
24/03/2018,CHV,0.5,4.66,6,4.1,89,381.6,67,-5.77
25/03/2018,CHV,0,15.26,13.1,4.8,80,234,67,-7.17
26/03/2018,CHV,0.5,10.38,14.7,4.4,77,165.2869565,67,-7.86
27/03/2018,CHV,2,14.23,13.5,5,71,251.6869565,67,-7.38
28/03/2018,CHV,4,5.89,13.1,5.2,88,432,67,-4.22
29/03/2018,CHV,10,7.15,13.2,6.4,88,482.4,67,0
30/03/2018,CHV,3.5,13.79,11,1.7,85,414,67,0
31/03/2018,CHV,1,6.6,9.3,5.1,85,399.6,67,-0.16
01/04/2018,CHV,0,9.15,10.6,2.3,84,280.8,67,-1.41
02/04/2018,CHV,0,8.05,11.2,5.4,77,331.2,67,-2.92
03/04/2018,CHV,1,8.81,16.2,7.1,72,349.2,67,-3.85
04/04/2018,CHV,4,7,13.5,9.6,83,406.8,67,-1.19
05/04/2018,CHV,2,11.71,13.5,8,85,475.2,67,-0.78
06/04/2018,CHV,0,11.78,11.2,5.3,77,367.2,67,-2.54
07/04/2018,CHV,0,20.39,18.7,3.4,70,392.4,67,-5.3
08/04/2018,CHV,0.5,11.93,19.3,9.6,78,298.8,67,-6.67
09/04/2018,CHV,0,12.89,20.5,9.1,75,280.8,67,-8.63
10/04/2018,CHV,13,5.55,13.9,10.7,96,219.6,67,0
11/04/2018,CHV,0.5,14.71,15.2,8.7,82,410.4,67,-1.61
12/04/2018,CHV,0,19.46,18.8,5.2,73,226.8,67,-4.24
13/04/2018,CHV,11.5,9.57,14.3,7.7,90,241.2,67,0
14/04/2018,CHV,0,14.4,16.9,8.2,87,180,67,-1.95
15/04/2018,CHV,0.5,8.72,16.3,6.6,90,147.6,67,-2.72
16/04/2018,CHV,0.5,12.08,16.9,7.8,84,306,67,-3.94
17/04/2018,CHV,0,15.97,16.6,6.7,77,162,67,-5.94
18/04/2018,CHV,0,23.39,20.8,6.2,68,162,67,-8.67
19/04/2018,CHV,0,23.62,24.3,9.7,64,216,67,-11.65
20/04/2018,CHV,0,23.58,26.7,11.1,60,165.6,67,-14.46
21/04/2018,CHV,0,23.5,27.5,12.7,63,90,67,-16.83
22/04/2018,CHV,0,23.26,26.7,11.5,66,162,67,-19.41
23/04/2018,CHV,3,21.3,25.7,13.2,66,316.8,67,-19.3
24/04/2018,CHV,0,20.03,17.9,10.7,78,302.4,67,-21.34
25/04/2018,CHV,0,23.84,19.7,6.1,76,262.8,67,-23.71
26/04/2018,CHV,0.5,14.98,16.2,10.8,79,378,67,-25.05
27/04/2018,CHV,0.5,22.31,15.3,5.3,72,298.8,67,-26.81
28/04/2018,CHV,0,20.65,18.6,5.3,65,396,67,-29.59
29/04/2018,CHV,2,14.02,15.4,10,74,403.2,67,-29.69
30/04/2018,CHV,8,6.47,11.3,8,96,270,67,-22.44
01/05/2018,CHV,8,6.51,5,3.5,98,565.2,67,-14.89
02/05/2018,CHV,0.5,17.74,12.9,3.5,78,248.4,67,-16.31
03/05/2018,CHV,0,21.97,16.2,3.7,75,320.4,67,-18.83
04/05/2018,CHV,0,23.66,16.2,3.6,75,331.2,67,-21.5
05/05/2018,CHV,0,26.65,18,2.9,70,378,67,-24.74
06/05/2018,CHV,0,26.18,22.5,8.4,68,352.8,67,-28.74
07/05/2018,CHV,0,25.5,26.2,10.6,69,252,67,-33.08
08/05/2018,CHV,0,27.87,25.6,11.8,65,223.2,67,-37.85
09/05/2018,CHV,0,27.23,26.1,10.4,68,223.2,67,-42.47
10/05/2018,CHV,0,26.36,21.1,10.8,74,378,67,-46.31
11/05/2018,CHV,0,19.7,16.5,8.8,70,385.2,67,-49.27
12/05/2018,CHV,0,28.01,21.1,4.6,65,208.8,67,-52.9
13/05/2018,CHV,5,10.97,17.4,9.9,85,230.4,67,-49.44
14/05/2018,CHV,0,12.08,14.6,8.3,83,291.6,67,-51.13
15/05/2018,CHV,3,7.01,14.1,9.5,85,471.6,67,-49.44
16/05/2018,CHV,0.5,17.74,20.5,10.6,88,403.2,67,-51.13
17/05/2018,CHV,0,24.15,21.4,7.9,84,428.4,67,-53.86
18/05/2018,CHV,0,26.02,18.1,9.1,72,442.8,67,-56.82
19/05/2018,CHV,0,28.41,18,4.7,72,331.2,67,-59.38
20/05/2018,CHV,0,29.45,18.9,5.5,74,338.4,67,-61.61
21/05/2018,CHV,0,26.48,22.2,5.7,77,280.8,67,-63.36
22/05/2018,CHV,0,23.91,23.2,9.5,75,154.8,67,-64.65
23/05/2018,CHV,4,24.61,24.6,10.7,82,192.4363636,67,-61.55
24/05/2018,CHV,0,21.83,20.7,10.7,88,306,67,-62.92
25/05/2018,CHV,0,21.89,23.8,12.7,85,172.8,67,-64.21
26/05/2018,CHV,26,20.01,25.6,10.5,87,277.2,67,-39.08
27/05/2018,CHV,0,22.29,26.4,14.1,80,363.6,67,-43.02
28/05/2018,CHV,0,25.05,27.4,14.9,74,154.8,67,-47.37
29/05/2018,CHV,6,20.4,26.6,16.5,83,169.2,67,-44.74
30/05/2018,CHV,9.5,12.01,22.6,13.6,93,162,67,-37.18
31/05/2018,CHV,3.5,24.31,25.6,15,83,180,67,-37.72
01/06/2018,CHV,0,23.66,24.6,15.7,87,219.6,67,-41.47
02/06/2018,CHV,3.5,12.04,19.8,14.8,94,262.8,67,-39.78
03/06/2018,CHV,0.5,24.7,23.4,12.4,81,144,67,-43.12
04/06/2018,CHV,0,25.04,25,13.3,78,234,67,-47.16
05/06/2018,CHV,3,17.77,24.3,16.3,87,226.8,67,-46.99
06/06/2018,CHV,14,7.51,20.3,15.1,95,327.6,67,-34.22
07/06/2018,CHV,1,10.96,22.5,13.2,96,223.2,67,-34.99
08/06/2018,CHV,0,26.41,24.1,16.3,82,219.6,67,-39.3
09/06/2018,CHV,0,25.82,24.5,13.6,87,223.2,67,-43.19
10/06/2018,CHV,0,19.5,24.2,14.8,92,212.4,67,-46.11
11/06/2018,CHV,2,16.74,24.2,14.7,92,172.8,67,-46.68
12/06/2018,CHV,59.5,9.34,21.3,16.4,98,237.6,67,0
13/06/2018,CHV,0.5,11.33,18.6,14.5,92,338.4,67,-1.37
14/06/2018,CHV,0.5,14.84,17.3,9.2,86,291.6,67,-3.16
15/06/2018,CHV,0,14.69,20.3,8.6,85,259.2,67,-5.64
16/06/2018,CHV,0,27.68,23.1,11.8,79,147.6,67,-10.06
17/06/2018,CHV,0,24.16,21.7,12.3,74,219.6,67,-14.16
18/06/2018,CHV,0,19.31,20.4,12,75,291.6,67,-17.66
19/06/2018,CHV,0,18.66,22.7,15.6,83,280.8,67,-21.01
20/06/2018,CHV,0,16.89,24.6,15,85,208.8,67,-24.14
21/06/2018,CHV,0,28.87,27.8,14.1,77,129.6,67,-29.26
22/06/2018,CHV,0,24.44,19.7,14.8,74,403.2,67,-33.4
23/06/2018,CHV,0,26.67,20.6,6.3,66,320.4,67,-37.67
24/06/2018,CHV,0,30.15,21.6,7.5,68,295.2,67,-42.23
25/06/2018,CHV,0,26.6,21.9,11,67,252,67,-46.53
26/06/2018,CHV,0,30.32,24.3,10.9,73,360,67,-51.04
27/06/2018,CHV,0,30.8,26,12.6,64,259.2,67,-55.76
28/06/2018,CHV,0,30.33,27.7,11.9,68,288,67,-59.8
29/06/2018,CHV,0,30.41,27.1,14.1,62,363.6,67,-63.19
30/06/2018,CHV,0,25.77,28.5,15.2,64,352.8,67,-65.17
01/07/2018,CHV,0,26.73,31.1,15.6,66,313.2,67,-66.27
02/07/2018,CHV,0,21.86,31.8,18,63,216,67,-66.72
03/07/2018,CHV,0,25.58,29.6,18.6,57,244.8,67,-67.23
04/07/2018,CHV,0,28.22,29.3,16.4,70,216,67,-67.68
05/07/2018,CHV,0,25.58,28.9,16.5,68,219.6,67,-68.11
06/07/2018,CHV,0,16.68,26.5,16,69,255.6,67,-68.43
07/07/2018,CHV,0,28.68,28.8,13.1,62,180,67,-68.87
08/07/2018,CHV,0,25.81,30.3,16.5,60,176.4,67,-69.3
09/07/2018,CHV,0,25.43,30.1,15.9,59,226.8,67,-69.74
10/07/2018,CHV,0,26.43,26.8,14.4,60,363.6,67,-70.18
11/07/2018,CHV,0,26.54,23.1,16,65,334.8,67,-70.56
12/07/2018,CHV,0,16.97,22.7,11.9,73,248.4,67,-70.8
13/07/2018,CHV,0,24.68,24.9,12.5,67,219.6,67,-71.14
14/07/2018,CHV,0,22.68,27.2,15.8,67,230.4,67,-71.47
15/07/2018,CHV,0,23.62,29.3,15.8,60,190.8,67,-71.84
16/07/2018,CHV,5,25.29,30.6,17.7,59,208.8,67,-67.24
17/07/2018,CHV,0,23.68,29.5,15.8,57,248.4,67,-67.7
18/07/2018,CHV,0,20.84,25.8,16,63,237.6,67,-68.07
19/07/2018,CHV,0,23.42,27.8,14.6,55,176.4,67,-68.47
20/07/2018,CHV,0,20,30.1,14.9,52,212.4,67,-68.88
21/07/2018,CHV,1,12.75,25,18.1,84,259.2,67,-68.09
22/07/2018,CHV,0,21.99,25,14.7,75,252,67,-68.42
23/07/2018,CHV,0,22.86,28.2,13.3,71,140.4,67,-68.77
24/07/2018,CHV,0,25.94,30.7,14.7,60,154.8,67,-69.18
25/07/2018,CHV,0,19.67,31.1,17.8,57,115.2,67,-69.52
26/07/2018,CHV,0,24.61,32.6,17.3,58,151.2,67,-69.94
27/07/2018,CHV,0,23.79,35.5,18.7,55,122.4,67,-70.35
28/07/2018,CHV,1.5,22.17,35.6,18.7,66,208.8,67,-69.25
29/07/2018,CHV,0,24.34,25.5,17.9,62,349.2,67,-69.66
30/07/2018,CHV,0,15.61,27.2,17.3,59,396,67,-70.04
31/07/2018,CHV,0,18.85,28,18.3,69,370.8,67,-70.39
01/08/2018,CHV,0,21.18,27.5,19,63,280.8,67,-70.76
02/08/2018,CHV,0,23.81,30.4,14.9,59,147.6,67,-71.12
03/08/2018,CHV,0,26.54,32.1,14.6,56,205.2,67,-71.54
04/08/2018,CHV,0,26.31,34.6,17.9,52,219.6,67,-71.99
05/08/2018,CHV,0,26.29,32.7,16.8,54,316.8,67,-72.45
06/08/2018,CHV,0,27.04,30.5,16.3,58,259.2,67,-72.85
07/08/2018,CHV,0,25.7,33.7,15.3,48,118.8,67,-73.22
08/08/2018,CHV,0,18.59,35.8,18.2,50,273.6,67,-73.62
09/08/2018,CHV,2,18.25,26.6,16,63,320.4,67,-71.92
10/08/2018,CHV,5.5,6.92,18.6,14.3,86,324,67,-66.54
11/08/2018,CHV,0,23.82,22.7,9.7,69,313.2,67,-66.88
12/08/2018,CHV,0,22.26,24.8,12.6,68,154.8,67,-67.21
13/08/2018,CHV,3,20.68,30.5,13.9,57,252,67,-64.63
14/08/2018,CHV,0,16.47,24.1,16.8,78,417.6,67,-65.43
15/08/2018,CHV,0,15.23,25.6,14.7,74,277.2,67,-65.96
16/08/2018,CHV,0,17.84,26,14.7,74,126,67,-66.32
17/08/2018,CHV,0,23.13,30.6,13.3,71,216,67,-66.71
18/08/2018,CHV,0,23.32,24.1,14.5,67,331.2,67,-67.09
19/08/2018,CHV,0,23.5,24.7,10.1,71,194.4,67,-67.41
20/08/2018,CHV,0,23.29,28.2,12,70,187.2,67,-67.75
21/08/2018,CHV,0,9.83,24.2,17.4,80,201.6,67,-67.94
22/08/2018,CHV,0,10.85,25.6,17.1,77,136.8,67,-68.14
23/08/2018,CHV,0,19.35,29.7,15,74,169.2,67,-68.44
24/08/2018,CHV,1,20.23,25.5,16.1,78,295.2,67,-67.73
25/08/2018,CHV,0,14.03,20.9,12.9,72,345.6,67,-67.98
26/08/2018,CHV,0,20.17,20.3,11.3,68,356.4,67,-68.27
27/08/2018,CHV,0.5,14.09,23.1,6.6,60,320.4,67,-68.05
28/08/2018,CHV,0,14.74,23.7,15.6,74,356.4,67,-68.31
29/08/2018,CHV,10.5,21.86,26.8,8.9,66,140.4,67,-58.1
30/08/2018,CHV,1,7.37,21.3,16,88,349.2,67,-58.16
31/08/2018,CHV,0,9.68,20.8,13.8,80,154.8,67,-59.39
01/09/2018,CHV,0,18.98,22.9,12.4,72,194.4,67,-61.2
02/09/2018,CHV,0,22.25,22.8,10.1,60,187.2,67,-62.94
03/09/2018,CHV,0,21.98,23.7,9.1,60,198,67,-64.28
04/09/2018,CHV,0,13.43,24.6,9.6,68,241.2,67,-65.06
05/09/2018,CHV,0,5.45,18.8,15.9,87,244.8,67,-65.33
06/09/2018,CHV,0,0.6264,21.2,14.6,68,162.36,67,-65.6
07/09/2018,CHV,0,1.2744,20.3,13,65,212.4,67,-65.87
08/09/2018,CHV,0,1.3932,23,9.7,64,122.4,67,-66.05
09/09/2018,CHV,0,1.3968,29,10.8,59,133.56,67,-66.24
10/09/2018,CHV,0,1.206,24.8,13.8,70,151.56,67,-66.38
11/09/2018,CHV,0,1.4544,28.8,12.7,62,156.6,67,-66.55
12/09/2018,CHV,0,1.3248,26.4,12.8,70,159.84,67,-66.68
13/09/2018,CHV,1.2,0.3744,18.3,14.9,84,153.72,67,-65.56
14/09/2018,CHV,0,1.4112,21.2,10.6,68,209.52,67,-65.83
15/09/2018,CHV,0,1.2564,21.8,9.6,68,112.68,67,-65.99
16/09/2018,CHV,0,1.1808,24.8,9.4,64,87.48,67,-66.13
17/09/2018,CHV,0,1.3824,29.2,9.6,57,127.08,67,-66.3
18/09/2018,CHV,0,0.8316,24.8,17.8,63,190.44,67,-66.48
19/09/2018,CHV,0,1.2312,24.4,16.1,68,232.56,67,-66.65
20/09/2018,CHV,0,1.2636,25.3,15.3,66,211.68,67,-66.83
21/09/2018,CHV,2.6,1.0332,20.5,13.3,62,424.08,67,-64.47
22/09/2018,CHV,0.6,0.5832,18.6,11.4,66,194.4,67,-64.28
23/09/2018,CHV,8,0.4176,22.3,9.3,85,393.84,67,-56.61
24/09/2018,CHV,0,1.1736,16.9,7.1,68,169.2,67,-57.57
25/09/2018,CHV,0,1.2852,17.1,6.3,65,152.28,67,-58.5
26/09/2018,CHV,0,1.2708,21.4,5.8,61,87.84,67,-59.28
27/09/2018,CHV,0,1.2096,25.9,5.9,66,71.28,67,-59.94
28/09/2018,CHV,0,0.6804,18.8,10,77,179.64,67,-60.59
29/09/2018,CHV,0,1.1988,17.9,7.6,60,182.52,67,-61.47
30/09/2018,CHV,0,1.1052,17.7,3.6,66,164.52,67,-62.11
01/10/2018,CHV,0,0.8856,15.6,9.2,61,276.48,67,-62.96
02/10/2018,CHV,0,0.2556,15.7,9.3,79,237.24,67,-63.38
03/10/2018,CHV,0.2,0.6048,18.9,14.3,82,174.6,67,-63.53
04/10/2018,CHV,0,1.062,20.9,11.2,73,99.72,67,-63.88
05/10/2018,CHV,0,1.0872,25.2,7.7,68,110.88,67,-64.27
06/10/2018,CHV,0,0.8856,22.1,9.3,71,140.04,67,-64.61
07/10/2018,CHV,4.2,0.1152,15,10.5,88,151.56,67,-60.57
08/10/2018,CHV,0,1.0404,18.6,6.6,71,102.96,67,-61.12
09/10/2018,CHV,0,0.9684,22.8,6.6,75,109.8,67,-61.63
10/10/2018,CHV,0,0.9324,25,10.3,71,160.92,67,-62.29
11/10/2018,CHV,4.6,0.7956,25,15.5,69,251.64,67,-58.52
12/10/2018,CHV,0,0.6876,24.6,14.3,78,180,67,-59.3
13/10/2018,CHV,0,0.7956,25.8,16.5,69,157.32,67,-60.22
14/10/2018,CHV,0,0.7668,25.6,15.7,62,174.6,67,-61.27
15/10/2018,CHV,0,0.8532,25.9,16.8,53,173.88,67,-62.39
16/10/2018,CHV,0,0.8208,24.4,13.8,61,106.92,67,-62.98
17/10/2018,CHV,0,0.6228,20.1,10.9,79,104.4,67,-63.32
18/10/2018,CHV,0,0.792,19.3,11.8,76,156.6,67,-63.71
19/10/2018,CHV,0,0.7524,18.5,10.4,80,145.8,67,-64.01
20/10/2018,CHV,0,0.8028,16.9,7.3,77,122.04,67,-64.28
21/10/2018,CHV,0,0.7776,18.1,4.9,76,73.8,67,-64.49
22/10/2018,CHV,0,0.2412,15.1,9.3,80,187.56,67,-64.74
23/10/2018,CHV,0,0.6984,17.1,4.3,77,209.16,67,-64.99
24/10/2018,CHV,0,0.2592,16.1,10.6,86,159.48,67,-65.15
25/10/2018,CHV,0,0.4428,15.6,9.7,81,155.16,67,-65.32
26/10/2018,CHV,0,0.3384,14.1,7.1,78,216.72,67,-65.5
27/10/2018,CHV,0,0.432,10.6,6.1,67,166.68,67,-65.68
28/10/2018,CHV,0,0.2808,7.5,6.5,67,253.08,67,-65.86
29/10/2018,CHV,0,0,7.4,3.4,81,50.04,67,-65.92
30/10/2018,CHV,1.2,0.2232,11.1,7.7,72,216,67,-64.86
31/10/2018,CHV,1.8,0.1836,10.7,7.8,85,104.4,67,-63.2
01/11/2018,CHV,1.8,0.1728,11.6,9.2,83,193.32,67,-61.7
02/11/2018,CHV,0.2,0.4788,12.4,9.1,61,84.96,67,-61.96
03/11/2018,CHV,0,0.3204,11.1,9.3,55,32.04,67,-62.29
04/11/2018,CHV,0,0.3204,11.6,7.6,77,85.32,67,-62.6
05/11/2018,CHV,0,0.4608,19.2,8.9,77,130.32,67,-62.99
06/11/2018,CHV,0,0.4608,18.1,10.7,73,217.08,67,-63.49
07/11/2018,CHV,3.6,0.1512,13.7,10.3,79,360.36,67,-60.31
08/11/2018,CHV,0,0.4356,12.9,9.1,72,132.48,67,-60.84
09/11/2018,CHV,0,0.4212,15,11.7,74,147.6,67,-61.38
10/11/2018,CHV,3.2,0.1584,13.1,11.5,85,415.8,67,-58.69
11/11/2018,CHV,7.6,0.0612,12.8,10.8,85,323.28,67,-51.68
12/11/2018,CHV,12.2,0.0468,12,11,89,128.52,67,-40
13/11/2018,CHV,0.2,0.4032,14.9,11.2,70,172.8,67,-41.02
14/11/2018,CHV,0,0.288,14.5,11.1,73,53.64,67,-41.73
15/11/2018,CHV,0,0,14.1,3.7,96,7.2,67,-42.16
16/11/2018,CHV,0,2.07,9.4,6.9,100,280.8,67,-42.32
17/11/2018,CHV,0,0,8.4,6.3,100,35.64,67,-42.7
18/11/2018,CHV,0,0,7.6,2.7,91,39.6,67,-43.13
19/11/2018,CHV,0,7.34,7.5,0.4,84,370.8,67,-43.42
20/11/2018,CHV,2.5,5.15,5.2,-1.3,83,475.2,67,-41.4
21/11/2018,CHV,3,1.92,2.2,0.8,98,295.2,67,-38.55
22/11/2018,CHV,0,7.26,5.6,-1.2,93,136.8,67,-38.32
23/11/2018,CHV,1.2,1.8612,5.7,5,95,82.08,67,-37.33
24/11/2018,CHV,2,4.3344,9.3,5.8,91,167.04,67,-35.43
25/11/2018,CHV,7,0.9684,7.7,5.1,96,146.52,67,-28.75
26/11/2018,CHV,0.8,0.8136,6,4.4,93,173.88,67,-28.33
27/11/2018,CHV,3,4.4532,9,4.4,89,150.12,67,-25.39
28/11/2018,CHV,12.6,1.8792,12.5,8.2,88,263.52,67,-13.36
29/11/2018,CHV,0.4,3.5928,14.4,10.8,75,258.84,67,-13.85
30/11/2018,CHV,0,5.9112,12.8,7.4,81,224.64,67,-14.05
01/12/2018,CHV,3.4,1.2852,11.9,6.2,89,289.44,67,-11.21
02/12/2018,CHV,6.4,2.5128,16.2,12.2,89,331.2,67,-5.43
03/12/2018,CHV,2,1.6704,15.3,12.2,83,391.68,67,-4.48
04/12/2018,CHV,1.4,4.0068,12.3,8.7,83,182.16,67,-3.34
05/12/2018,CHV,1.6,2.5884,13.3,8.4,86,164.52,67,-2.11
06/12/2018,CHV,0.2,1.5696,13.7,11.5,90,202.68,67,-2.39
07/12/2018,CHV,3.6,1.6632,12.7,7.4,82,443.52,67,0
08/12/2018,CHV,1.6,2.8368,12.2,7,80,474.12,67,0
09/12/2018,CHV,7.4,2.0772,11,8.1,80,574.92,67,0
10/12/2018,CHV,0.2,4.5144,10.6,5.8,85,221.76,67,0
11/12/2018,CHV,0,3.8664,8.6,2.6,90,87.12,67,0
12/12/2018,CHV,0,4.8996,5.5,0.3,88,142.56,67,0
13/12/2018,CHV,0,5.652,4.4,-0.5,82,203.4,67,0
14/12/2018,CHV,0,4.4532,2.6,-2.6,77,98.28,67,0
15/12/2018,CHV,7,1.44,1.9,-3,82,186.12,67,0
16/12/2018,CHV,0.8,1.4292,8.1,1.9,95,138.96,67,0
17/12/2018,CHV,1.4,5.4576,10,5,89,192.24,67,0
18/12/2018,CHV,0.8,3.1824,9.2,5.9,80,234.36,67,0
19/12/2018,CHV,2,2.9052,10.6,7.8,85,295.92,67,0
20/12/2018,CHV,0,5.3208,10.7,7.2,81,315.72,67,-0.29
21/12/2018,CHV,2,2.5416,15.6,9.9,86,458.28,67,0
22/12/2018,CHV,4,2.5704,13.5,9.4,84,362.52,67,0
23/12/2018,CHV,6,1.6272,14.1,9,91,283.32,67,0
24/12/2018,CHV,5.8,2.0232,13.3,5.7,91,155.52,67,0
25/12/2018,CHV,0,5.0796,7.2,-1,90,48.6,67,0
26/12/2018,CHV,0,5.0472,5.6,-2.8,86,70.92,67,0
27/12/2018,CHV,0,1.8072,1.2,-1.3,92,78.12,67,-0.12
28/12/2018,CHV,0,1.1232,1.7,-0.5,93,99.72,67,-0.35
29/12/2018,CHV,0.2,1.386,7.8,1.9,89,108.72,67,-0.45
30/12/2018,CHV,0,1.6344,9.7,7.9,94,158.4,67,-0.7
31/12/2018,CHV,0,1.224,10,8.1,93,127.44,67,-1.02
01/01/2019,CHV,0,0.918,8.9,7.5,89,179.28,67,-0.55
02/01/2019,CHV,0,2.3976,8.3,5,77,168.48,67,-1.19
03/01/2019,CHV,0,2.4048,6.7,3.9,83,124.92,67,-1.59
04/01/2019,CHV,0,1.9368,6,2.1,85,110.16,67,-1.95
05/01/2019,CHV,0,0.7344,5.6,3.9,79,183.96,67,-2.63
06/01/2019,CHV,0,0.8244,6.1,4.2,81,201.24,67,-3.26
07/01/2019,CHV,0.2,1.386,7.9,5.4,92,174.24,67,-3.43
08/01/2019,CHV,0.2,3.2688,9.6,5.6,81,348.48,67,-3.93
09/01/2019,CHV,0,2.268,6.6,3.5,77,321.12,67,-4.68
10/01/2019,CHV,0,2.4732,5.4,-0.2,86,133.2,67,-4.98
11/01/2019,CHV,0.6,1.332,8.1,3.5,93,173.52,67,-4.69
12/01/2019,CHV,0.2,1.4436,9.4,6.4,89,312.12,67,-5.01
13/01/2019,CHV,0,2.3184,11.9,8.8,84,564.48,67,-5.87
14/01/2019,CHV,0.2,2.4912,10.7,7.1,75,329.4,67,-6.58
15/01/2019,CHV,0,1.6236,8.5,6.1,75,163.44,67,-7.2
16/01/2019,CHV,0,4.7628,7.4,2.2,77,233.28,67,-7.67
17/01/2019,CHV,2.2,3.9204,7.9,0.7,83,327.96,67,-5.92
18/01/2019,CHV,0,6.3504,5.8,-0.9,80,133.92,67,-6.12
19/01/2019,CHV,1.6,1.9728,2.8,-1.2,89,184.68,67,-4.81
20/01/2019,CHV,0.8,1.1376,3,0.7,92,133.92,67,-4.31
21/01/2019,CHV,0,6.9948,4.1,-2.9,82,63.72,67,-4.39
22/01/2019,CHV,3.2,1.4796,2.2,-1.4,90,164.52,67,-1.5
23/01/2019,CHV,3.8,1.3788,2.4,-0.6,92,233.28,67,0
24/01/2019,CHV,0.4,3.6324,3.7,-2.3,89,115.2,67,0
25/01/2019,CHV,2.2,2.2068,7.8,2.2,94,124.92,67,0
26/01/2019,CHV,0.4,3.7116,10,7.9,89,284.4,67,-0.18
27/01/2019,CHV,2,2.5704,8.6,5.2,80,504.36,67,0
28/01/2019,CHV,0,6.4116,7.2,1.1,74,395.28,67,-1.01
29/01/2019,CHV,3.6,3.186,4.7,-0.8,83,175.68,67,0
30/01/2019,CHV,10.8,6.1632,3.8,0.2,88,242.28,67,0
31/01/2019,CHV,1.2,2.9916,4,-1,90,211.68,67,0
01/02/2019,CHV,7,2.394,7.7,3.5,90,141.84,67,0
02/02/2019,CHV,1.8,2.4588,4.9,3.2,87,353.16,67,0
03/02/2019,CHV,0,7.5672,6.3,0.1,79,249.48,67,-0.68
04/02/2019,CHV,0.8,1.7316,4,0,80,195.12,67,-0.53
05/02/2019,CHV,0,5.6736,6.7,3.5,83,170.28,67,-1.11
06/02/2019,CHV,3.4,2.286,10.8,4.9,90,177.48,67,0
07/02/2019,CHV,0.2,7.8912,10.8,7,77,367.2,67,-1
08/02/2019,CHV,0.4,2.6784,10.3,7.2,84,438.48,67,-1.59
09/02/2019,CHV,1.4,7.29,12.3,8.1,73,403.2,67,-1.6
10/02/2019,CHV,8.2,3.9744,10.9,5.9,83,621.72,67,0
11/02/2019,CHV,0,4.248,9,3.5,82,265.68,67,-0.84
12/02/2019,CHV,0,6.5628,9.4,-0.6,83,87.12,67,-1.37
13/02/2019,CHV,0,7.5096,10.1,-0.7,82,91.08,67,-1.93
14/02/2019,CHV,0,10.7244,13.9,-0.4,77,103.68,67,-2.64
15/02/2019,CHV,0,10.8972,16,0.4,72,95.4,67,-3.45
16/02/2019,CHV,0,10.3176,16.8,0.2,73,84.24,67,-4.22
17/02/2019,CHV,0,11.3904,16.6,1.8,63,130.32,67,-5.26
18/02/2019,CHV,0,10.7604,15.1,1.9,71,153,67,-6.19
19/02/2019,CHV,0,8.82,12,5.3,81,128.88,67,-6.85
20/02/2019,CHV,0,8.082,13.6,1.1,86,102.24,67,-7.42
21/02/2019,CHV,0,10.4508,15.8,1.8,82,75.6,67,-8.06
22/02/2019,CHV,0.2,9.4608,17.2,1.5,82,85.32,67,-8.52
23/02/2019,CHV,0,12.2544,16.3,5.3,71,140.4,67,-9.46
24/02/2019,CHV,0,12.3876,15.4,2,54,122.04,67,-10.46
25/02/2019,CHV,0,12.492,18.4,1.5,58,111.96,67,-11.43
26/02/2019,CHV,0,12.744,19.2,2.5,61,99.72,67,-12.34
27/02/2019,CHV,0,12.9168,20.5,2.7,68,81.72,67,-13.18
28/02/2019,CHV,1.2,7.6644,14.8,5.8,80,325.08,67,-12.75
01/03/2019,CHV,0.6,3.942,11.6,9.1,85,357.12,67,-12.77
02/03/2019,CHV,0.6,5.1264,12.8,8.3,77,271.44,67,-12.96
03/03/2019,CHV,0.2,3.636,15.1,10.6,75,428.4,67,-13.82
04/03/2019,CHV,0.4,7.11,12.8,6.4,73,567.72,67,-14.51
05/03/2019,CHV,0.2,7.884,13.1,5.5,79,316.44,67,-15.05
06/03/2019,CHV,2.8,2.8116,12.8,9.2,72,307.08,67,-13.09
07/03/2019,CHV,7.6,12.222,12.8,7.1,76,415.08,67,-6.51
08/03/2019,CHV,0,10.062,11.9,5.4,72,354.24,67,-7.83
09/03/2019,CHV,0,6.0732,15.1,8.4,78,403.92,67,-9.04
10/03/2019,CHV,6,11.9052,13.6,7.4,69,650.88,67,-4.75
11/03/2019,CHV,2.8,13.176,10.3,4.8,67,497.88,67,-3.7
12/03/2019,CHV,1,10.044,12.5,5,65,409.68,67,-4.59
13/03/2019,CHV,0.4,10.5192,11.3,4.5,72,575.64,67,-5.84
14/03/2019,CHV,4,3.4092,12,7.3,86,548.64,67,-2.71
15/03/2019,CHV,0.6,4.032,14.2,10.8,80,667.44,67,-3.69
16/03/2019,CHV,0,10.8252,15.1,10.4,70,438.12,67,-5.76
17/03/2019,CHV,6.6,10.3644,10.5,4.7,77,471.24,67,-0.44
18/03/2019,CHV,0,9.558,10.2,4.5,78,242.28,67,-1.81
19/03/2019,CHV,0,14.9112,12.9,0.7,77,103.68,67,-3.24
20/03/2019,CHV,0,10.7352,14.1,3.8,77,87.48,67,-4.46
21/03/2019,CHV,0,17.0784,16.8,4.6,76,116.64,67,-6.1
22/03/2019,CHV,0,13.7988,17.5,4.7,75,114.84,67,-7.51
23/03/2019,CHV,0,8.874,13.5,4.2,80,124.2,67,-8.47
24/03/2019,CHV,0,7.56,12.9,6.4,75,189.36,67,-9.51
25/03/2019,CHV,0,15.8364,12,3.7,63,294.84,67,-11.07
26/03/2019,CHV,0,18.054,13,3.6,60,193.68,67,-12.55
27/03/2019,CHV,0,10.2888,13,2.9,70,150.12,67,-13.51
28/03/2019,CHV,0,12.7296,13.6,6.3,68,153.36,67,-14.6
29/03/2019,CHV,0,18.0252,18.6,4.4,64,138.6,67,-15.96
30/03/2019,CHV,0,18.4392,19.9,4.8,57,111.24,67,-17.32
31/03/2019,CHV,0,18.0756,20.4,4,64,177.48,67,-18.66
01/04/2019,CHV,0,18.4716,21.2,7.6,59,167.76,67,-20.05
02/04/2019,CHV,0,11.232,16.7,7.4,67,274.32,67,-21.13
03/04/2019,CHV,0.4,12.888,9.7,4.1,73,229.32,67,-21.57
04/04/2019,CHV,0,17.7408,11.8,0.1,64,183.6,67,-22.63
05/04/2019,CHV,0,13.8132,13.4,4.4,51,212.76,67,-23.91
06/04/2019,CHV,0.2,15.606,17.3,5.1,60,201.24,67,-25.09
07/04/2019,CHV,0,10.674,15.5,8.3,65,184.32,67,-26.23
08/04/2019,CHV,0.4,11.4768,16.4,5.8,75,105.12,67,-26.82
09/04/2019,CHV,0.8,8.7696,13.7,7,86,121.68,67,-26.78
10/04/2019,CHV,0,5.5728,12.5,8,84,180.36,67,-27.49